TIANLIAN 2-05 (63662 NORAD) Tracking and Keplerian Element Data

This shows tracking and keplerian element data for the satellite.

Feedback or suggestion? Click here.




ElementValue
Catalog63662
NameTIANLIAN 2-05
Epoch Orbit258
Epoch Day353.4852935
Epoch Year2025
RAAN281.8202
Inclination4.907
Eccentricity0.0001879
Argument of Perigee54.2879
Mean Anonmoly307.3452
Mean Motion1.00274211
Decay Rate1.54E-06
L11 63662U 25084A 25353.48529350 .00000154 00000+0 00000+0 0 9994
L22 63662 4.9070 281.8202 0001879 54.2879 307.3452 1.00274211 2585



Live tracking and technical data element details for TIANLIAN 2-05 (NORAD 63662). TIANLIAN 2-05 can be tracked NOW for your location showing map with azimuth and elevation plus other details from your city location.







IsCatalogInMostPopularTable: catalog: 63662, numindb: 6
Update: records affected: 1



GetName: 63662 TIANLIAN 2-05

Hit Count: updated at: Tue, 21 Apr 2026 19:27:43 GMT